Lid_Strength_Index
8 8 8 8 8 7 7 6 6 5 4 3 4 4 4 4 4 6 7 6 5 7 6 5 5 7 7 8 10 8 8 8 10 12 12 13 14 13 14 12 13 13 14 15 14 16 17 7 8 11 9 8 7 7
8 8 8 8 7 7 7 6 5 4 4 3 3 4 4 4 4 5 8 5 5 7 6 4 3 3 4 4 7 7 8 8 9 10 11 11 13 12 13 15 11 14 11 13 12 12 9 8 8 7 7 7 7 7
8 8 8 7 7 7 6 6 5 4 4 3 2 3 4 4 4 6 9 8 7 7 6 6 6 4 3 3 3 7 7 6 7 7 9 10 12 11 14 13 13 10 9 11 11 10 9 8 7 7 7 6 5 6
8 8 7 7 6 6 6 6 5 5 4 3 2 3 4 5 5 5 10 7 7 8 9 7 3 4 3 4 4 3 6 7 7 7 9 10 11 10 11 10 11 9 9 10 10 9 8 7 7 7 6 5 5 4
8 7 7 6 6 6 6 6 6 5 4 3 2 3 4 5 5 6 8 8 6 6 9 8 5 4 4 5 4 5 6 7 8 9 10 10 9 9 10 10 11 8 9 10 11 8 8 8 6 5 6 6 6 5
7 6 6 6 5 5 5 5 5 5 4 3 3 3 5 5 5 8 6 6 6 5 7 10 5 5 5 5 5 6 6 7 7 8 9 9 8 9 11 12 9 8 8 8 7 7 7 6 5 5 6 5 5 5
6 6 6 5 5 5 4 5 5 4 4 3 3 3 5 6 8 9 6 6 6 6 7 9 9 6 5 6 6 7 7 7 7 9 9 9 9 9 11 12 9 8 7 6 6 5 7 6 6 5 5 4 4 4
6 5 5 5 5 4 4 5 5 5 4 3 3 4 6 6 6 8 6 6 6 8 5 10 9 7 6 8 8 7 8 8 8 8 9 9 9 10 11 9 8 7 6 6 6 6 6 6 6 5 5 5 4 5
5 5 5 5 5 4 4 4 5 4 4 3 3 5 7 8 9 6 2 3 4 5 8 9 11 11 6 7 8 7 8 9 8 9 9 8 10 11 9 9 8 7 7 6 6 5 5 5 6 6 6 5 6 5
5 5 5 5 5 4 4 4 5 4 3 3 6 7 8 7 3 3 5 6 6 6 7 9 8 10 7 8 8 9 9 10 10 9 8 10 10 8 8 7 7 7 7 6 6 7 7 7 6 7 6 6 6 6
5 5 4 4 4 4 4 4 4 4 4 6 7 6 4 2 5 6 8 9 8 10 8 8 7 9 7 9 9 8 10 10 13 10 10 11 11 8 7 7 7 7 7 5 5 4 4 4 5 6 6 6 6 6
4 4 4 4 3 3 3 4 4 4 5 6 6 6 5 6 8 10 10 9 10 11 8 8 8 7 9 6 8 8 10 10 13 9 10 12 9 8 7 6 6 7 7 6 5 5 5 5 5 6 6 7 6 5
4 4 4 4 4 3 3 4 4 4 4 5 5 6 7 7 12 12 13 12 11 8 7 8 8 7 6 6 8 9 11 12 9 11 12 10 9 7 7 7 7 7 6 5 5 5 4 5 5 6 7 6 5 5
4 4 4 4 4 3 4 4 4 4 5 6 7 12 10 11 10 10 10 9 7 7 8 7 8 8 7 9 9 11 9 9 12 14 12 9 8 7 7 6 6 6 6 5 5 5 5 5 6 6 6 6 6 5
4 4 4 4 3 4 4 4 3 4 6 7 7 12 10 7 8 7 7 7 7 6 6 7 8 8 9 9 9 10 12 13 12 12 10 8 7 7 7 6 6 6 6 6 6 6 6 6 6 6 6 6 5 5
4 4 5 4 3 4 4 4 4 5 5 6 7 9 8 8 9 8 8 8 6 6 6 6 9 10 10 10 11 12 12 13 11 9 7 7 7 6 5 5 6 6 6 6 6 6 6 6 6 6 6 5 5 5
4 6 4 4 4 4 4 4 5 7 6 7 8 6 7 7 8 7 7 6 6 6 9 8 10 11 9 12 12 10 11 9 8 7 6 5 6 5 5 5 5 5 6 6 6 6 6 6 6 5 6 5 5 5
6 5 4 4 5 5 4 4 5 6 8 7 8 7 6 7 7 6 6 5 5 7 7 9 8 10 12 13 12 9 8 7 7 6 5 6 6 5 4 5 5 6 6 6 6 6 6 6 6 5 5 5 6 6
5 4 4 4 4 5 6 5 4 8 7 7 7 5 6 6 6 6 6 6 5 4 6 8 10 11 10 9 8 8 7 6 7 6 5 5 4 4 4 4 5 5 5 5 6 6 5 5 6 5 6 6 6 5
4 4 4 4 4 5 6 6 3 6 8 7 6 7 6 6 6 6 5 5 6 7 8 9 9 8 8 6 6 6 5 5 6 6 6 5 4 4 4 5 4 5 4 4 4 7 6 5 5 5 5 5 5 4
4 4 4 4 4 4 5 5 6 6 6 7 6 7 7 8 8 8 7 6 7 8 9 7 6 6 5 4 5 5 5 5 5 5 6 6 5 4 5 5 4 5 5 5 5 5 7 6 5 5 5 5 5 5
4 3 4 4 5 4 5 4 6 6 7 7 7 7 8 9 8 8 6 8 8 7 6 6 6 6 6 6 5 4 4 4 4 5 7 7 6 6 5 5 5 5 5 5 4 4 4 4 5 5 5 5 5 5
3 3 4 4 6 8 8 4 7 6 9 8 8 9 8 8 7 6 8 8 7 6 5 5 5 5 5 5 5 4 4 4 5 5 5 5 5 6 5 5 5 5 5 4 4 4 4 7 6 5 4 5 5 5
3 5 7 7 7 9 6 8 6 7 7 9 9 10 9 8 7 8 9 8 7 5 6 5 5 5 5 5 5 5 4 4 5 5 4 5 5 5 4 3 4 4 5 4 4 4 4 4 6 5 4 4 4 4
9 9 9 11 6 8 9 9 8 8 9 9 10 10 9 7 9 9 9 9 7 6 6 5 6 6 5 5 5 5 4 4 4 5 3 4 4 5 5 5 4 4 4 4 3 4 4 4 4 4 4 4 4 4
11 7 9 8 8 9 9 10 9 9 10 10 9 8 7 9 11 11 9 7 7 6 6 6 6 6 6 6 6 5 5 5 4 5 3 4 4 4 5 4 5 4 3 2 3 3 3 4 4 4 3 4 7 6
11 9 8 7 8 7 8 8 8 9 9 9 8 9 9 11 11 9 6 5 6 5 4 4 5 6 5 5 5 4 4 3 4 3 3 2 3 3 4 4 4 3 2 3 4 3 3 3 3 3 3 3 3 3
8 7 9 8 8 8 9 9 9 9 8 7 7 9 10 10 9 7 6 4 4 4 3 4 3 3 4 4 4 3 3 4 3 3 3 3 3 2 3 3 3 8 4 3 3 3 3 3 3 3 3 3 3 4
8 6 7 8 8 9 9 9 8 7 6 7 8 8 9 6 5 5 5 3 2 3 4 4 3 3 4 4 4 4 3 4 5 6 6 5 5 4 3 3 3 3 4 3 8 5 3 3 3 3 3 2 4 4
8 7 8 9 9 10 9 7 7 7 7 7 6 6 6 5 4 3 3 3 4 4 3 3 3 4 5 4 4 4 3 3 3 4 5 5 4 3 3 3 3 3 2 2 3 3 9 7 6 4 4 5 5 5
8 8 8 9 9 8 8 8 8 7 7 7 6 6 6 5 4 2 3 3 3 3 3 4 4 4 4 4 4 5 5 3 4 3 3 3 3 3 3 3 3 3 3 2 3 4 4 5 5 5 5 5 5 5
9 9 9 11 10 8 7 8 8 9 8 8 8 8 7 6 7 5 3 3 5 5 5 5 4 4 3 2 2 3 7 3 2 2 3 3 2 2 2 2 2 2 2 2 2 3 4 4 5 5 4 4 4 4
8 9 8 8 9 9 9 8 8 8 8 9 8 8 7 7 8 4 1 3 4 4 4 5 3 2 2 2 2 2 5 2 4 9 10 10 12 11 7 4 3 2 3 3 2 3 3 5 5 5 4 4 4 5